Find Yaogan 31 hao 04 zu 02 xing

NORAD ID: 47856 Int'l Des: 2021-020 Owner: ZLZB Country: CN Constellation: yaogan operational
LEO

Live-Position

3D-Globus wird geladen...

Über Yaogan 31 hao 04 zu 02 xing

Beschreibung wird geladen...

Nächste Überflüge

Passes for default location (London). Set your location on the main map for personalized predictions.

Höhenverlauf

Loading altitude history...

Zweizeiliger Elementsatz

1 47856U 21020C 26105.87549429 .00000020 00000-0 17055-3 0 9990
2 47856 63.4052 58.9056 0169430 0.2933 359.8163 13.45444225250023
Epoch: 15. Apr. 2026 • Age: 5 hours

Aktueller Status

Höhe 1013.2 km
Geschwindigkeit 7.39 km/s
Subsatellitenpunkt -39.58°S, 157.62°E
Startdatum 13. März 2021
Alter 5 years
Typ military

Technische Details

Klassifizierung Payload
Masse 500.00 kg
Trockenmasse 500.00 kg
Gesamtmasse 500.00 kg
Länge 0.50 m
Durchmesser 0.50 m
Spannweite 1.00 m
Form Box + 2 Pan
Hersteller DFHZ
Phasenstatus In Orbit
Besitzer/Staat ZLZB/CN

Most Searched